099  
ASUS46 KSTO 021715  
RWRCA  
 
NORTHERN AND CENTRAL CA REGIONAL WEATHER ROUNDUP  
NATIONAL WEATHER SERVICE SACRAMENTO CA  
1000 AM PDT THU JUL 02 2020  
 
NOTE: FAIR INDICATES FEW OR NO CLOUDS BELOW 12,000 FEET WITH NO  
SIGNIFICANT WEATHER AND/OR S TO VISIBILITY
.  
 
CAZ001-003-021800-  
NORTHWEST AREA  
 
CITY SKY/WX TMP DP RH WIND PRES REMARKS
 
CRESCENT CITY SUNNY 57 48 72 N8 29.94S HAZE  
UKIAH SUNNY 71 49 45 CALM 29.84F  

 
 
CAZ006-505>513-021800-  
BAY AREA  
 
CITY SKY/WX TMP DP RH WIND PRES REMARKS
 
SANTA ROSA PTSUNNY 58 51 78 S5 29.90R  
SAN RAFAEL N/A MM MM MM MISG  
NAPA MOSUNNY 62 51 67 VRB6 29.89S  
CONCORD SUNNY 67 50 54 S13 29.87S  
OAKLAND CITY N/A 60 MM MM MISG  
OAKLAND MOSUNNY 63 52 67 SW7 29.90R  
SAN FRAN CITY N/A 61 MM 67 MISG  
SAN FRAN ARPT MOSUNNY 62 50 64 NE6 29.89R  
LIVERMORE SUNNY 64 50 60 VRB5 29.87F  
HAYWARD SUNNY 64 50 60 S7 29.88F  
SAN JOSE ARPT MOSUNNY 64 49 57 SE12 29.88F  

 
CAZ034-037-514>518-021800-  
CENTRAL COAST  
 
CITY SKY/WX TMP DP RH WIND PRES REMARKS
 
WATSONVILLE CLOUDY 56 53 90 SW6 29.95R  
SALINAS CLOUDY 63 52 67 CALM 29.93S  
MONTEREY CLOUDY 59 52 77 NW3 29.94S  
SAN LUIS OBISP CLOUDY 63 55 75 VRB5 29.95R  
SANTA MARIA CLOUDY 59 55 87 NW3 29.95S FOG  

 
CAZ015-016-021800-  
NORTHERN SACRAMENTO VALLEY  
 
CITY SKY/WX TMP DP RH WIND PRES REMARKS
 
REDDING SUNNY 82 39 21 N10 29.81F  
RED BLUFF SUNNY 83 38 20 N7 29.82F  
OROVILLE SUNNY 78 55 44 S3 29.84S  

 
CAZ016>018-021800-  
SOUTHERN SACRAMENTO VALLEY  
 
CITY SKY/WX TMP DP RH WIND PRES REMARKS
 
AUBURN SUNNY 77 52 41 W3 29.87S  
BEALE AFB SUNNY 76 54 46 SW6 29.82S  
LINCOLN FAIR 73 50 43 S8 29.83F  
MARYSVILLE SUNNY 73 54 51 VRB5 29.84S  
SAC INTL ARPT SUNNY 69 54 58 VRB5 29.83F  
MATHER AIRPORT SUNNY 68 52 56 S6 29.84S  
DOWNTOWN SAC N/A 71 MM MM MISG  
SAC EXEC ARPT SUNNY 70 53 54 SW7 29.85S  
VACAVILLE SUNNY 72 51 47 SW6 29.85S  
TRAVIS AFB SUNNY 68 51 56 SW17G24 29.85S  

 
CAZ019>021-021800-  
SAN JOAQUIN VALLEY  
 
CITY SKY/WX TMP DP RH WIND PRES REMARKS
 
STOCKTON SUNNY 71 53 52 NW8 29.85S  
MODESTO SUNNY 71 52 50 N5 29.84S  
LEMOORE SUNNY 80 51 36 E5 29.85R  
FRESNO SUNNY 77 48 35 SE9 29.84S  
HANFORD SUNNY 78 57 48 VRB5 29.85S  
PORTERVILLE SUNNY 80 52 37 W7 29.86S  
BAKERSFIELD SUNNY 83 43 24 N8 29.84F  

 
CAZ011-012-071-021800-  
NORTHERN MOUNTAINS  
 
CITY SKY/WX TMP DP RH WIND PRES REMARKS
 
YREKA SUNNY 65 37 35 VRB5 30.02F  
MOUNT SHASTA SUNNY 64 35 34 W5 30.00F  
ALTURAS SUNNY 63 34 33 CALM 30.03F  

 
CAZ011-012-071-021800-  
SIERRA NEVADA MTNS  
 
CITY SKY/WX TMP DP RH WIND PRES REMARKS
 
BLUE CANYON SUNNY 66 44 45 SW7 30.06S  
TRUCKEE SUNNY 63 37 39 CALM 30.09F  
TAHOE VLY ARPT SUNNY 66 40 38 NE7 30.08F  
MAMMOTH LAKES FAIR 68 36 30 SE6 30.14S  

 
 
 
CLICK HERE TO GO TO PREVIOUS BULLETINS.

The Nexlab CA Page Main Text Page